| time (UTC) | temp C | wind direction | speed KPH | gust KPH | rain 1hr cm | rain 24hr cm | rain mn cm | humidity % | barometer mb |
| 20260906035826 | 19 | 46 | 11.3 | 24.1 | 0.00 | 0.00 | 0.00 | 50 | 1026.3 |
| 20260906035401 | 20 | 22 | 8.0 | 19.3 | 0.00 | 0.00 | 0.00 | 49 | 1026.3 |
| 20260906034816 | 20 | 46 | 9.7 | 20.9 | 0.00 | 0.00 | 0.00 | 49 | 1026.2 |
| 20260906034325 | 20 | 45 | 12.9 | 20.9 | 0.00 | 0.00 | 0.00 | 48 | 1026.1 |
| 20260906033840 | 20 | 42 | 8.0 | 19.3 | 0.00 | 0.00 | 0.00 | 48 | 1026.0 |
| 20260906033331 | 20 | 80 | 9.7 | 22.5 | 0.00 | 0.00 | 0.00 | 47 | 1026.0 |
| 20260906032815 | 20 | 33 | 11.3 | 22.5 | 0.00 | 0.00 | 0.00 | 47 | 1026.0 |
| 20260906032328 | 20 | 65 | 12.9 | 17.7 | 0.00 | 0.00 | 0.00 | 48 | 1025.9 |
| 20260906031825 | 20 | 41 | 8.0 | 17.7 | 0.00 | 0.00 | 0.00 | 48 | 1025.8 |
| 20260906031330 | 20 | 68 | 9.7 | 20.9 | 0.00 | 0.00 | 0.00 | 48 | 1025.8 |
| 20260906030824 | 20 | 73 | 9.7 | 17.7 | 0.00 | 0.00 | 0.00 | 49 | 1025.8 |
| 20260906030329 | 20 | 36 | 11.3 | 17.7 | 0.00 | 0.00 | 0.00 | 49 | 1025.8 |
| 20260906025823 | 20 | 74 | 8.0 | 22.5 | 0.00 | 0.00 | 0.00 | 50 | 1025.9 |
| 20260906025339 | 20 | 82 | 9.7 | 22.5 | 0.00 | 0.00 | 0.00 | 50 | 1025.8 |
| 20260906024843 | 20 | 40 | 9.7 | 17.7 | 0.00 | 0.00 | 0.00 | 50 | 1025.6 |
| 20260906024327 | 20 | 47 | 6.4 | 16.1 | 0.00 | 0.00 | 0.00 | 50 | 1025.6 |
| 20260906023821 | 20 | 42 | 8.0 | 16.1 | 0.00 | 0.00 | 0.00 | 50 | 1025.4 |
| 20260906023327 | 20 | 71 | 8.0 | 16.1 | 0.00 | 0.00 | 0.00 | 50 | 1025.5 |
| 20260906022817 | 21 | 50 | 6.4 | 14.5 | 0.00 | 0.00 | 0.00 | 50 | 1025.3 |
| 20260906022322 | 21 | 64 | 8.0 | 19.3 | 0.00 | 0.00 | 0.00 | 50 | 1025.4 |
| 20260906021830 | 21 | 49 | 8.0 | 19.3 | 0.00 | 0.00 | 0.00 | 50 | 1025.3 |
| 20260906021326 | 21 | 92 | 11.3 | 20.9 | 0.00 | 0.00 | 0.00 | 50 | 1025.1 |
| 20260906020841 | 21 | 67 | 11.3 | 25.7 | 0.00 | 0.00 | 0.00 | 51 | 1025.2 |
| 20260906020327 | 21 | 39 | 12.9 | 25.7 | 0.00 | 0.00 | 0.00 | 51 | 1025.2 |
| 20260906015820 | 21 | 32 | 6.4 | 20.9 | 0.00 | 0.00 | 0.00 | 51 | 1025.2 |
| 20260906015323 | 21 | 44 | 12.9 | 20.9 | 0.00 | 0.00 | 0.00 | 51 | 1025.0 |
| 20260906014830 | 21 | 78 | 12.9 | 25.7 | 0.00 | 0.00 | 0.00 | 52 | 1024.9 |
| 20260906014324 | 21 | 49 | 12.9 | 25.7 | 0.00 | 0.00 | 0.00 | 52 | 1024.9 |
| 20260906013830 | 21 | 86 | 8.0 | 24.1 | 0.00 | 0.00 | 0.00 | 52 | 1024.9 |
| 20260906013324 | 21 | 41 | 11.3 | 20.9 | 0.00 | 0.00 | 0.00 | 53 | 1025.0 |
| 20260906012839 | 21 | 65 | 12.9 | 20.9 | 0.00 | 0.00 | 0.00 | 52 | 1024.9 |
| 20260906012323 | 21 | 42 | 11.3 | 22.5 | 0.00 | 0.00 | 0.00 | 52 | 1024.9 |
| 20260906011839 | 21 | 39 | 14.5 | 24.1 | 0.00 | 0.00 | 0.00 | 52 | 1025.0 |
| 20260906011325 | 21 | 74 | 12.9 | 25.7 | 0.00 | 0.00 | 0.00 | 52 | 1025.0 |
| 20260906010840 | 21 | 31 | 16.1 | 25.7 | 0.00 | 0.00 | 0.00 | 52 | 1025.0 |
| 20260906010326 | 21 | 45 | 9.7 | 22.5 | 0.00 | 0.00 | 0.00 | 52 | 1024.9 |
| 20260906005819 | 21 | 19 | 11.3 | 22.5 | 0.00 | 0.00 | 0.00 | 52 | 1024.9 |
| 20260906005334 | 21 | 55 | 12.9 | 20.9 | 0.00 | 0.00 | 0.00 | 52 | 1024.8 |
| 20260906004839 | 21 | 36 | 9.7 | 19.3 | 0.00 | 0.00 | 0.00 | 52 | 1024.7 |
| 20260906004322 | 21 | 49 | 12.9 | 20.9 | 0.00 | 0.00 | 0.00 | 52 | 1024.6 |
| 20260906003817 | 21 | 34 | 9.7 | 22.5 | 0.00 | 0.00 | 0.00 | 53 | 1024.6 |
| 20260906003318 | 21 | 62 | 14.5 | 22.5 | 0.00 | 0.00 | 0.00 | 53 | 1024.6 |
| 20260906002834 | 21 | 42 | 11.3 | 22.5 | 0.00 | 0.00 | 0.00 | 53 | 1024.6 |
| 20260906002327 | 21 | 32 | 9.7 | 20.9 | 0.00 | 0.00 | 0.00 | 53 | 1024.5 |
| 20260906001831 | 21 | 47 | 9.7 | 24.1 | 0.00 | 0.00 | 0.00 | 53 | 1024.5 |
| 20260906001325 | 21 | 65 | 14.5 | 25.7 | 0.00 | 0.00 | 0.00 | 53 | 1024.5 |
| 20260906000841 | 22 | 65 | 12.9 | 19.3 | 0.00 | 0.00 | 0.00 | 53 | 1024.4 |
| 20260906000326 | 22 | 79 | 11.3 | 22.5 | 0.00 | 0.00 | 0.00 | 53 | 1024.5 |
| 20260905235820 | 22 | 44 | 14.5 | 25.7 | 0.00 | 0.00 | 0.00 | 53 | 1024.5 |
| 20260905235334 | 22 | 59 | 14.5 | 25.7 | 0.00 | 0.00 | 0.00 | 53 | 1024.4 |
| 20260905234840 | 22 | 55 | 9.7 | 25.7 | 0.00 | 0.00 | 0.00 | 54 | 1024.5 |
| 20260905234327 | 22 | 34 | 9.7 | 24.1 | 0.00 | 0.00 | 0.00 | 54 | 1024.5 |
| 20260905233842 | 22 | 39 | 12.9 | 24.1 | 0.00 | 0.00 | 0.00 | 54 | 1024.4 |
| 20260905233337 | 22 | 42 | 11.3 | 20.9 | 0.00 | 0.00 | 0.00 | 54 | 1024.3 |
| 20260905232820 | 22 | 74 | 11.3 | 24.1 | 0.00 | 0.00 | 0.00 | 55 | 1024.4 |
| 20260905232355 | 22 | 65 | 16.1 | 24.1 | 0.00 | 0.00 | 0.00 | 55 | 1024.3 |
| 20260905231820 | 22 | 44 | 9.7 | 20.9 | 0.00 | 0.00 | 0.00 | 56 | 1024.2 |
| 20260905231316 | 22 | 45 | 8.0 | 24.1 | 0.00 | 0.00 | 0.00 | 55 | 1024.3 |
| 20260905230848 | 22 | 74 | 14.5 | 24.1 | 0.00 | 0.00 | 0.00 | 55 | 1024.1 |
| 20260905230329 | 22 | 82 | 11.3 | 22.5 | 0.00 | 0.00 | 0.00 | 56 | 1024.3 |
| 20260905225822 | 22 | 11 | 6.4 | 16.1 | 0.00 | 0.00 | 0.00 | 56 | 1024.3 |
| 20260905225316 | 22 | 44 | 6.4 | 25.7 | 0.00 | 0.00 | 0.00 | 56 | 1024.2 |
| 20260905224822 | 22 | 64 | 9.7 | 20.9 | 0.00 | 0.00 | 0.00 | 56 | 1024.2 |
| 20260905224327 | 22 | 45 | 12.9 | 20.9 | 0.00 | 0.00 | 0.00 | 56 | 1024.2 |
| 20260905223823 | 22 | 323 | 6.4 | 25.7 | 0.00 | 0.00 | 0.00 | 56 | 1024.0 |
| 20260905223329 | 23 | 344 | 11.3 | 25.7 | 0.00 | 0.00 | 0.00 | 56 | 1024.0 |
| 20260905222824 | 23 | 66 | 14.5 | 22.5 | 0.00 | 0.00 | 0.00 | 56 | 1023.9 |
| 20260905222317 | 23 | 49 | 8.0 | 22.5 | 0.00 | 0.00 | 0.00 | 56 | 1023.9 |
| 20260905221832 | 23 | 59 | 8.0 | 22.5 | 0.00 | 0.00 | 0.00 | 56 | 1023.7 |
| 20260905221338 | 23 | 50 | 12.9 | 22.5 | 0.00 | 0.00 | 0.00 | 56 | 1023.7 |
| 20260905220832 | 23 | 338 | 9.7 | 24.1 | 0.00 | 0.00 | 0.00 | 56 | 1023.7 |
| 20260905220317 | 23 | 32 | 11.3 | 29.0 | 0.00 | 0.00 | 0.00 | 56 | 1023.6 |
| 20260905215829 | 23 | 70 | 16.1 | 29.0 | 0.00 | 0.00 | 0.00 | 56 | 1023.4 |
| 20260905215324 | 23 | 87 | 16.1 | 32.2 | 0.00 | 0.00 | 0.00 | 56 | 1023.3 |
| 20260905214846 | 23 | 92 | 16.1 | 35.4 | 0.00 | 0.00 | 0.00 | 56 | 1023.4 |
| 20260905214341 | 23 | 78 | 20.9 | 37.0 | 0.00 | 0.00 | 0.00 | 56 | 1023.2 |
| 20260905213826 | 23 | 82 | 22.5 | 37.0 | 0.00 | 0.00 | 0.00 | 55 | 1023.2 |
| 20260905213341 | 23 | 67 | 16.1 | 29.0 | 0.00 | 0.00 | 0.00 | 55 | 1023.0 |
| 20260905212826 | 24 | 69 | 16.1 | 35.4 | 0.00 | 0.00 | 0.00 | 54 | 1022.9 |
| 20260905212341 | 24 | 87 | 22.5 | 37.0 | 0.00 | 0.00 | 0.00 | 54 | 1023.0 |
| 20260905211827 | 24 | 78 | 22.5 | 37.0 | 0.00 | 0.00 | 0.00 | 54 | 1023.1 |
| 20260905211321 | 25 | 28 | 14.5 | 32.2 | 0.00 | 0.00 | 0.00 | 53 | 1023.0 |
| 20260905210816 | 25 | 77 | 20.9 | 32.2 | 0.00 | 0.00 | 0.00 | 52 | 1023.0 |
| 20260905210322 | 25 | 98 | 20.9 | 32.2 | 0.00 | 0.00 | 0.00 | 51 | 1022.9 |
| 20260905205815 | 25 | 89 | 16.1 | 27.4 | 0.00 | 0.00 | 0.00 | 48 | 1022.9 |
| 20260905205327 | 25 | 68 | 16.1 | 25.7 | 0.00 | 0.00 | 0.00 | 47 | 1022.9 |
| 20260905204814 | 25 | 110 | 14.5 | 27.4 | 0.00 | 0.00 | 0.00 | 46 | 1022.7 |
| 20260905204350 | 25 | 55 | 17.7 | 27.4 | 0.00 | 0.00 | 0.00 | 46 | 1022.6 |
| 20260905203815 | 25 | 82 | 12.9 | 22.5 | 0.00 | 0.00 | 0.00 | 46 | 1022.5 |
| 20260905203344 | 25 | 91 | 12.9 | 20.9 | 0.00 | 0.00 | 0.00 | 46 | 1022.5 |
| 20260905202818 | 25 | 74 | 14.5 | 20.9 | 0.00 | 0.00 | 0.00 | 46 | 1022.4 |
| 20260905202324 | 24 | 98 | 11.3 | 19.3 | 0.00 | 0.00 | 0.00 | 45 | 1022.6 |
| 20260905201839 | 23 | 83 | 9.7 | 12.9 | 0.00 | 0.00 | 0.00 | 46 | 1022.5 |
| 20260905201329 | 23 | 98 | 6.4 | 12.9 | 0.00 | 0.00 | 0.00 | 47 | 1022.4 |
| 20260905200815 | 22 | 91 | 4.8 | 9.7 | 0.00 | 0.00 | 0.00 | 48 | 1022.4 |
| 20260905200330 | 23 | 105 | 3.2 | 9.7 | 0.00 | 0.00 | 0.00 | 48 | 1022.5 |
| 20260905195815 | 23 | 26 | 3.2 | 8.0 | 0.00 | 0.00 | 0.00 | 47 | 1022.6 |
| 20260905195328 | 23 | 232 | 0.0 | 3.2 | 0.00 | 0.00 | 0.00 | 46 | 1022.4 |
| 20260905194834 | 23 | 232 | 1.6 | 3.2 | 0.00 | 0.00 | 0.00 | 46 | 1022.5 |
| 20260905194328 | 23 | 234 | 0.0 | 3.2 | 0.00 | 0.00 | 0.00 | 45 | 1022.4 |
| 20260905193840 | 23 | 234 | 1.6 | 4.8 | 0.00 | 0.00 | 0.00 | 46 | 1022.3 |
| 20260905193326 | 23 | 235 | 3.2 | 9.7 | 0.00 | 0.00 | 0.00 | 47 | 1022.3 |
| 20260905192841 | 24 | 264 | 1.6 | 9.7 | 0.00 | 0.00 | 0.00 | 45 | 1022.3 |
| 20260905192326 | 24 | 241 | 0.0 | 3.2 | 0.00 | 0.00 | 0.00 | 43 | 1022.5 |
| 20260905191840 | 25 | 104 | 0.0 | 6.4 | 0.00 | 0.00 | 0.00 | 42 | 1022.0 |
| 20260905191331 | 25 | 105 | 3.2 | 9.7 | 0.00 | 0.00 | 0.00 | 42 | 1021.9 |
| 20260905190818 | 25 | 76 | 4.8 | 9.7 | 0.00 | 0.00 | 0.00 | 42 | 1021.7 |
| 20260905190332 | 25 | 101 | 4.8 | 6.4 | 0.00 | 0.00 | 0.00 | 42 | 1021.7 |
| 20260905185819 | 25 | 101 | 3.2 | 6.4 | 0.00 | 0.00 | 0.00 | 41 | 1021.6 |
| 20260905185331 | 25 | 95 | 3.2 | 6.4 | 0.00 | 0.00 | 0.00 | 41 | 1021.6 |
| 20260905184838 | 25 | 111 | 1.6 | 4.8 | 0.00 | 0.00 | 0.00 | 42 | 1021.5 |
| 20260905184324 | 25 | 99 | 1.6 | 4.8 | 0.00 | 0.00 | 0.00 | 42 | 1021.5 |
| 20260905183817 | 25 | 93 | 1.6 | 4.8 | 0.00 | 0.00 | 0.00 | 42 | 1021.4 |
| 20260905183330 | 25 | 93 | 1.6 | 4.8 | 0.00 | 0.00 | 0.00 | 42 | 1021.3 |
| 20260905182816 | 25 | 93 | 1.6 | 9.7 | 0.00 | 0.00 | 0.00 | 42 | 1021.2 |
| 20260905182350 | 25 | 105 | 3.2 | 11.3 | 0.00 | 0.00 | 0.00 | 42 | 1021.4 |
| 20260905181822 | 25 | 94 | 3.2 | 11.3 | 0.00 | 0.00 | 0.00 | 43 | 1021.3 |
| 20260905181329 | 25 | 94 | 4.8 | 8.0 | 0.00 | 0.00 | 0.00 | 43 | 1021.4 |
| 20260905180822 | 26 | 78 | 3.2 | 4.8 | 0.00 | 0.00 | 0.00 | 43 | 1021.2 |
| 20260905180338 | 26 | 107 | 0.0 | 1.6 | 0.00 | 0.00 | 0.00 | 42 | 1021.1 |
| 20260905175843 | 26 | 107 | 0.0 | 3.2 | 0.00 | 0.00 | 0.00 | 43 | 1021.0 |
| 20260905175337 | 26 | 107 | 1.6 | 3.2 | 0.00 | 0.00 | 0.00 | 41 | 1020.9 |
| 20260905174819 | 27 | 107 | 0.0 | 1.6 | 0.00 | 0.00 | 0.00 | 41 | 1021.0 |
| 20260905174334 | 27 | 107 | 0.0 | 3.2 | 0.00 | 0.00 | 0.00 | 40 | 1020.7 |
| 20260905173820 | 27 | 107 | 1.6 | 4.8 | 0.00 | 0.00 | 0.00 | 39 | 1020.7 |
| 20260905173335 | 27 | 107 | 1.6 | 4.8 | 0.00 | 0.00 | 0.00 | 40 | 1020.7 |
| 20260905172821 | 27 | 255 | 0.0 | 4.8 | 0.00 | 0.00 | 0.00 | 40 | 1020.9 |
| 20260905172314 | 28 | 255 | 1.6 | 3.2 | 0.00 | 0.00 | 0.00 | 40 | 1020.7 |
| 20260905171819 | 28 | 255 | 0.0 | 1.6 | 0.00 | 0.00 | 0.00 | 39 | 1020.7 |
| 20260905171314 | 29 | 255 | 0.0 | 1.6 | 0.00 | 0.00 | 0.00 | 37 | 1020.7 |
| 20260905170829 | 30 | 255 | 0.0 | 3.2 | 0.00 | 0.00 | 0.00 | 35 | 1020.6 |
| 20260905170314 | 30 | 255 | 1.6 | 3.2 | 0.00 | 0.00 | 0.00 | 35 | 1020.7 |
| 20260905165850 | 31 | 255 | 1.6 | 3.2 | 0.00 | 0.00 | 0.00 | 34 | 1020.6 |
| 20260905165341 | 31 | 255 | 0.0 | 3.2 | 0.00 | 0.00 | 0.00 | 31 | 1020.6 |
| 20260905164847 | 31 | 255 | 1.6 | 3.2 | 0.00 | 0.00 | 0.00 | 31 | 1020.6 |
| 20260905164319 | 31 | 255 | 0.0 | 4.8 | 0.00 | 0.00 | 0.00 | 31 | 1020.6 |
| 20260905163835 | 32 | 255 | 1.6 | 4.8 | 0.00 | 0.00 | 0.00 | 31 | 1020.5 |
| 20260905163322 | 32 | 255 | 0.0 | 4.8 | 0.00 | 0.00 | 0.00 | 30 | 1020.5 |
| 20260905162832 | 32 | 255 | 1.6 | 4.8 | 0.00 | 0.00 | 0.00 | 30 | 1020.4 |
| 20260905162318 | 32 | 238 | 3.2 | 4.8 | 0.00 | 0.00 | 0.00 | 30 | 1020.3 |
| 20260905161853 | 32 | 238 | 1.6 | 4.8 | 0.00 | 0.00 | 0.00 | 30 | 1020.4 |
| 20260905161347 | 32 | 238 | 1.6 | 4.8 | 0.00 | 0.00 | 0.00 | 30 | 1020.4 |
| 20260905160841 | 32 | 238 | 3.2 | 8.0 | 0.00 | 0.00 | 0.00 | 30 | 1020.5 |
| 20260905160326 | 32 | 355 | 4.8 | 8.0 | 0.00 | 0.00 | 0.00 | 29 | 1020.6 |
| 20260905155821 | 33 | 325 | 4.8 | 8.0 | 0.00 | 0.00 | 0.00 | 28 | 1020.6 |
| 20260905155335 | 33 | 263 | 1.6 | 4.8 | 0.00 | 0.00 | 0.00 | 27 | 1020.5 |
| 20260905154842 | 33 | 268 | 1.6 | 4.8 | 0.00 | 0.00 | 0.00 | 27 | 1020.5 |
| 20260905154326 | 33 | 261 | 0.0 | 3.2 | 0.00 | 0.00 | 0.00 | 27 | 1020.4 |
| 20260905153821 | 33 | 261 | 1.6 | 4.8 | 0.00 | 0.00 | 0.00 | 27 | 1020.4 |
| 20260905153335 | 33 | 261 | 1.6 | 4.8 | 0.00 | 0.00 | 0.00 | 27 | 1020.5 |
| 20260905152821 | 33 | 238 | 1.6 | 4.8 | 0.00 | 0.00 | 0.00 | 26 | 1020.5 |
| 20260905152317 | 33 | 239 | 0.0 | 6.4 | 0.00 | 0.00 | 0.00 | 26 | 1020.5 |
| 20260905151822 | 33 | 258 | 1.6 | 8.0 | 0.00 | 0.00 | 0.00 | 27 | 1020.5 |
| 20260905151316 | 33 | 231 | 3.2 | 8.0 | 0.00 | 0.00 | 0.00 | 26 | 1020.5 |
| 20260905150847 | 33 | 297 | 0.0 | 4.8 | 0.00 | 0.00 | 0.00 | 26 | 1020.5 |
| 20260905150331 | 33 | 223 | 1.6 | 4.8 | 0.00 | 0.00 | 0.00 | 26 | 1020.5 |
| 20260905145824 | 33 | 222 | 3.2 | 6.4 | 0.00 | 0.00 | 0.00 | 26 | 1020.7 |
| 20260905145320 | 32 | 193 | 3.2 | 6.4 | 0.00 | 0.00 | 0.00 | 26 | 1020.6 |
| 20260905144824 | 32 | 306 | 3.2 | 8.0 | 0.00 | 0.00 | 0.00 | 27 | 1020.7 |
| 20260905144339 | 32 | 298 | 4.8 | 8.0 | 0.00 | 0.00 | 0.00 | 27 | 1020.8 |
| 20260905143845 | 32 | 302 | 3.2 | 11.3 | 0.00 | 0.00 | 0.00 | 27 | 1020.8 |
| 20260905143318 | 32 | 82 | 3.2 | 11.3 | 0.00 | 0.00 | 0.00 | 27 | 1020.7 |
| 20260905142823 | 32 | 75 | 3.2 | 9.7 | 0.00 | 0.00 | 0.00 | 27 | 1020.8 |
| 20260905142317 | 32 | 80 | 6.4 | 12.9 | 0.00 | 0.00 | 0.00 | 27 | 1020.8 |
| 20260905141831 | 32 | 286 | 4.8 | 12.9 | 0.00 | 0.00 | 0.00 | 26 | 1020.9 |
| 20260905141324 | 32 | 295 | 1.6 | 14.5 | 0.00 | 0.00 | 0.00 | 26 | 1020.8 |
| 20260905140831 | 33 | 344 | 6.4 | 14.5 | 0.00 | 0.00 | 0.00 | 25 | 1020.9 |
| 20260905140323 | 33 | 271 | 0.0 | 4.8 | 0.00 | 0.00 | 0.00 | 25 | 1021.1 |
| 20260905135852 | 33 | 267 | 1.6 | 4.8 | 0.00 | 0.00 | 0.00 | 26 | 1021.1 |
| 20260905135315 | 33 | 269 | 3.2 | 8.0 | 0.00 | 0.00 | 0.00 | 27 | 1021.1 |
| 20260905134841 | 33 | 207 | 3.2 | 8.0 | 0.00 | 0.00 | 0.00 | 27 | 1021.1 |
| 20260905134334 | 32 | 151 | 3.2 | 8.0 | 0.00 | 0.00 | 0.00 | 28 | 1021.3 |
| 20260905133818 | 32 | 251 | 3.2 | 11.3 | 0.00 | 0.00 | 0.00 | 28 | 1021.3 |
| 20260905133331 | 32 | 180 | 4.8 | 12.9 | 0.00 | 0.00 | 0.00 | 29 | 1021.3 |
| 20260905132824 | 32 | 261 | 6.4 | 12.9 | 0.00 | 0.00 | 0.00 | 29 | 1021.3 |
| 20260905132331 | 32 | 327 | 6.4 | 12.9 | 0.00 | 0.00 | 0.00 | 30 | 1021.3 |
| 20260905131825 | 32 | 343 | 1.6 | 9.7 | 0.00 | 0.00 | 0.00 | 30 | 1021.3 |
| 20260905131331 | 31 | 242 | 4.8 | 9.7 | 0.00 | 0.00 | 0.00 | 30 | 1021.4 |
| 20260905130826 | 31 | 82 | 3.2 | 9.7 | 0.00 | 0.00 | 0.00 | 30 | 1021.3 |
| 20260905130341 | 31 | 71 | 6.4 | 9.7 | 0.00 | 0.00 | 0.00 | 30 | 1021.4 |
| 20260905125825 | 31 | 130 | 3.2 | 9.7 | 0.00 | 0.00 | 0.00 | 31 | 1021.5 |
| 20260905125319 | 31 | 31 | 1.6 | 16.1 | 0.00 | 0.00 | 0.00 | 31 | 1021.6 |
| 20260905124826 | 31 | 336 | 6.4 | 16.1 | 0.00 | 0.00 | 0.00 | 32 | 1021.7 |
| 20260905124333 | 31 | 27 | 4.8 | 12.9 | 0.00 | 0.00 | 0.00 | 32 | 1021.8 |
| 20260905123827 | 31 | 330 | 6.4 | 12.9 | 0.00 | 0.00 | 0.00 | 31 | 1021.9 |
| 20260905123333 | 31 | 26 | 4.8 | 12.9 | 0.00 | 0.00 | 0.00 | 30 | 1021.8 |
| 20260905122826 | 31 | 171 | 3.2 | 12.9 | 0.00 | 0.00 | 0.00 | 31 | 1021.9 |
| 20260905122328 | 31 | 275 | 4.8 | 14.5 | 0.00 | 0.00 | 0.00 | 30 | 1022.0 |
| 20260905121822 | 31 | 311 | 6.4 | 14.5 | 0.00 | 0.00 | 0.00 | 29 | 1022.2 |
| 20260905121335 | 32 | 279 | 3.2 | 11.3 | 0.00 | 0.00 | 0.00 | 30 | 1022.2 |
| 20260905120819 | 32 | 133 | 3.2 | 12.9 | 0.00 | 0.00 | 0.00 | 31 | 1022.2 |
| 20260905120333 | 31 | 228 | 3.2 | 12.9 | 0.00 | 0.00 | 0.00 | 30 | 1022.3 |
| 20260905115818 | 31 | 288 | 3.2 | 12.9 | 0.00 | 0.00 | 0.00 | 30 | 1022.3 |
| 20260905115403 | 31 | 159 | 4.8 | 9.7 | 0.00 | 0.00 | 0.00 | 31 | 1022.3 |
| 20260905114817 | 31 | 157 | 1.6 | 11.3 | 0.00 | 0.00 | 0.00 | 31 | 1022.4 |
| 20260905114332 | 31 | 220 | 4.8 | 8.0 | 0.00 | 0.00 | 0.00 | 32 | 1022.3 |
| 20260905113816 | 30 | 44 | 1.6 | 4.8 | 0.00 | 0.00 | 0.00 | 33 | 1022.4 |
| 20260905113328 | 30 | 321 | 1.6 | 6.4 | 0.00 | 0.00 | 0.00 | 33 | 1022.4 |
| 20260905112824 | 30 | 355 | 1.6 | 9.7 | 0.00 | 0.00 | 0.00 | 32 | 1022.6 |
| 20260905112329 | 30 | 327 | 8.0 | 14.5 | 0.00 | 0.00 | 0.00 | 32 | 1022.6 |
| 20260905111822 | 30 | 281 | 6.4 | 16.1 | 0.00 | 0.00 | 0.00 | 33 | 1022.6 |
| 20260905111325 | 30 | 240 | 4.8 | 16.1 | 0.00 | 0.00 | 0.00 | 35 | 1022.6 |
| 20260905110818 | 29 | 236 | 1.6 | 8.0 | 0.00 | 0.00 | 0.00 | 36 | 1022.6 |
| 20260905110353 | 29 | 301 | 3.2 | 12.9 | 0.00 | 0.00 | 0.00 | 38 | 1022.6 |
| 20260905105817 | 29 | 333 | 3.2 | 12.9 | 0.00 | 0.00 | 0.00 | 38 | 1022.6 |
| 20260905105328 | 29 | 329 | 4.8 | 14.5 | 0.00 | 0.00 | 0.00 | 38 | 1022.6 |
| 20260905104833 | 29 | 229 | 6.4 | 12.9 | 0.00 | 0.00 | 0.00 | 38 | 1022.6 |
| 20260905104327 | 29 | 273 | 3.2 | 6.4 | 0.00 | 0.00 | 0.00 | 38 | 1022.6 |
| 20260905103833 | 29 | 267 | 3.2 | 6.4 | 0.00 | 0.00 | 0.00 | 39 | 1022.7 |
| 20260905103324 | 28 | 225 | 3.2 | 6.4 | 0.00 | 0.00 | 0.00 | 40 | 1022.7 |
| 20260905102828 | 28 | 105 | 3.2 | 6.4 | 0.00 | 0.00 | 0.00 | 40 | 1022.8 |
| 20260905102322 | 28 | 294 | 3.2 | 11.3 | 0.00 | 0.00 | 0.00 | 41 | 1022.8 |
| 20260905101836 | 27 | 226 | 3.2 | 11.3 | 0.00 | 0.00 | 0.00 | 42 | 1022.9 |
| 20260905101320 | 27 | 233 | 3.2 | 12.9 | 0.00 | 0.00 | 0.00 | 42 | 1023.1 |
| 20260905100853 | 27 | 288 | 4.8 | 12.9 | 0.00 | 0.00 | 0.00 | 42 | 1023.0 |
| 20260905100325 | 27 | 302 | 3.2 | 11.3 | 0.00 | 0.00 | 0.00 | 43 | 1023.2 |
| 20260905095841 | 27 | 203 | 3.2 | 9.7 | 0.00 | 0.00 | 0.00 | 43 | 1023.2 |
| 20260905095322 | 27 | 263 | 3.2 | 11.3 | 0.00 | 0.00 | 0.00 | 43 | 1023.4 |
| 20260905094829 | 27 | 196 | 1.6 | 11.3 | 0.00 | 0.00 | 0.00 | 44 | 1023.4 |
| 20260905094323 | 27 | 225 | 6.4 | 11.3 | 0.00 | 0.00 | 0.00 | 43 | 1023.4 |
| 20260905093853 | 27 | 295 | 4.8 | 12.9 | 0.00 | 0.00 | 0.00 | 44 | 1023.5 |
| 20260905093317 | 26 | 226 | 1.6 | 12.9 | 0.00 | 0.00 | 0.00 | 45 | 1023.6 |
| 20260905092830 | 26 | 237 | 3.2 | 9.7 | 0.00 | 0.00 | 0.00 | 45 | 1023.5 |
| 20260905092343 | 26 | 236 | 3.2 | 8.0 | 0.00 | 0.00 | 0.00 | 46 | 1023.6 |
| 20260905091835 | 26 | 240 | 1.6 | 6.4 | 0.00 | 0.00 | 0.00 | 47 | 1023.6 |
| 20260905091339 | 25 | 298 | 4.8 | 8.0 | 0.00 | 0.00 | 0.00 | 47 | 1023.6 |
| 20260905090851 | 25 | 300 | 4.8 | 8.0 | 0.00 | 0.00 | 0.00 | 46 | 1023.6 |
| 20260905090324 | 25 | 239 | 4.8 | 9.7 | 0.00 | 0.00 | 0.00 | 47 | 1023.7 |
| 20260905085859 | 25 | 213 | 3.2 | 8.0 | 0.00 | 0.00 | 0.00 | 48 | 1023.7 |
| 20260905085319 | 25 | 175 | 1.6 | 6.4 | 0.00 | 0.00 | 0.00 | 49 | 1023.8 |
| 20260905084854 | 24 | 214 | 1.6 | 9.7 | 0.00 | 0.00 | 0.00 | 49 | 1023.8 |
| 20260905084316 | 24 | 309 | 3.2 | 9.7 | 0.00 | 0.00 | 0.00 | 49 | 1023.9 |
| 20260905083830 | 24 | 288 | 4.8 | 9.7 | 0.00 | 0.00 | 0.00 | 50 | 1023.8 |
| 20260905083313 | 24 | 322 | 3.2 | 8.0 | 0.00 | 0.00 | 0.00 | 49 | 1023.9 |
| 20260905082842 | 24 | 227 | 0.0 | 4.8 | 0.00 | 0.00 | 0.00 | 51 | 1023.9 |
| 20260905082333 | 23 | 230 | 1.6 | 6.4 | 0.00 | 0.00 | 0.00 | 51 | 1023.9 |
| 20260905081817 | 23 | 186 | 3.2 | 8.0 | 0.00 | 0.00 | 0.00 | 52 | 1024.0 |
| 20260905081330 | 23 | 234 | 4.8 | 8.0 | 0.00 | 0.00 | 0.00 | 52 | 1023.9 |
| 20260905080815 | 23 | 294 | 4.8 | 8.0 | 0.00 | 0.00 | 0.00 | 53 | 1023.9 |
| 20260905080330 | 22 | 322 | 1.6 | 6.4 | 0.00 | 0.00 | 0.00 | 54 | 1023.9 |
| 20260905075816 | 22 | 326 | 1.6 | 11.3 | 0.00 | 0.00 | 0.00 | 54 | 1023.8 |
| 20260905075349 | 22 | 287 | 4.8 | 11.3 | 0.00 | 0.00 | 0.00 | 53 | 1023.9 |
| 20260905074814 | 22 | 209 | 1.6 | 4.8 | 0.00 | 0.00 | 0.00 | 54 | 1023.8 |
| 20260905074350 | 22 | 310 | 1.6 | 6.4 | 0.00 | 0.00 | 0.00 | 54 | 1023.9 |
| 20260905073832 | 22 | 229 | 1.6 | 8.0 | 0.00 | 0.00 | 0.00 | 55 | 1024.0 |
| 20260905073317 | 22 | 227 | 3.2 | 8.0 | 0.00 | 0.00 | 0.00 | 55 | 1023.9 |
| 20260905072849 | 22 | 132 | 0.0 | 6.4 | 0.00 | 0.00 | 0.00 | 57 | 1023.9 |
| 20260905072321 | 21 | 223 | 1.6 | 6.4 | 0.00 | 0.00 | 0.00 | 57 | 1023.8 |
| 20260905071851 | 21 | 215 | 3.2 | 6.4 | 0.00 | 0.00 | 0.00 | 58 | 1023.9 |
| 20260905071342 | 21 | 218 | 1.6 | 6.4 | 0.00 | 0.00 | 0.00 | 58 | 1023.8 |
| 20260905070826 | 21 | 233 | 3.2 | 8.0 | 0.00 | 0.00 | 0.00 | 58 | 1023.8 |
| 20260905070318 | 21 | 223 | 1.6 | 4.8 | 0.00 | 0.00 | 0.00 | 57 | 1023.7 |
| 20260905065833 | 21 | 202 | 1.6 | 4.8 | 0.00 | 0.00 | 0.00 | 58 | 1023.7 |
| 20260905065319 | 21 | 187 | 1.6 | 4.8 | 0.00 | 0.00 | 0.00 | 60 | 1023.8 |
| 20260905064827 | 20 | 204 | 0.0 | 4.8 | 0.00 | 0.00 | 0.00 | 61 | 1023.8 |
| 20260905064341 | 20 | 163 | 1.6 | 6.4 | 0.00 | 0.00 | 0.00 | 61 | 1023.9 |
| 20260905063826 | 20 | 86 | 0.0 | 3.2 | 0.00 | 0.00 | 0.00 | 62 | 1023.9 |
| 20260905063327 | 20 | 86 | 0.0 | 3.2 | 0.00 | 0.00 | 0.00 | 62 | 1023.9 |
| 20260905062820 | 20 | 87 | 0.0 | 3.2 | 0.00 | 0.00 | 0.00 | 62 | 1023.9 |
| 20260905062315 | 19 | 87 | 1.6 | 6.4 | 0.00 | 0.00 | 0.00 | 64 | 1024.0 |
| 20260905061819 | 19 | 90 | 1.6 | 6.4 | 0.00 | 0.00 | 0.00 | 64 | 1024.0 |
| 20260905061350 | 19 | 90 | 1.6 | 6.4 | 0.00 | 0.00 | 0.00 | 65 | 1024.1 |
| 20260905060824 | 19 | 90 | 4.8 | 6.4 | 0.00 | 0.00 | 0.00 | 64 | 1023.9 |
| 20260905060330 | 19 | 99 | 1.6 | 4.8 | 0.00 | 0.00 | 0.00 | 64 | 1024.0 |
| 20260905055825 | 18 | 100 | 1.6 | 3.2 | 0.00 | 0.00 | 0.00 | 65 | 1024.1 |
| 20260905055337 | 18 | 100 | 1.6 | 3.2 | 0.00 | 0.00 | 0.00 | 65 | 1024.0 |
| 20260905054815 | 18 | 100 | 0.0 | 3.2 | 0.00 | 0.00 | 0.00 | 66 | 1024.0 |
| 20260905054330 | 17 | 100 | 1.6 | 3.2 | 0.00 | 0.00 | 0.00 | 67 | 1024.0 |
| 20260905053815 | 17 | 100 | 1.6 | 3.2 | 0.00 | 0.00 | 0.00 | 68 | 1024.0 |
| 20260905053327 | 17 | 100 | 0.0 | 0.0 | 0.00 | 0.00 | 0.00 | 69 | 1023.9 |
| 20260905052822 | 17 | 100 | 0.0 | 0.0 | 0.00 | 0.00 | 0.00 | 71 | 1023.9 |
| 20260905052326 | 16 | 100 | 0.0 | 1.6 | 0.00 | 0.00 | 0.00 | 72 | 1024.0 |
| 20260905051820 | 16 | 100 | 0.0 | 1.6 | 0.00 | 0.00 | 0.00 | 72 | 1023.9 |
| 20260905051322 | 16 | 100 | 0.0 | 3.2 | 0.00 | 0.00 | 0.00 | 73 | 1023.8 |
| 20260905050838 | 16 | 100 | 1.6 | 3.2 | 0.00 | 0.00 | 0.00 | 73 | 1023.9 |
| 20260905050331 | 16 | 100 | 0.0 | 1.6 | 0.00 | 0.00 | 0.00 | 73 | 1023.9 |
| 20260905045818 | 16 | 100 | 0.0 | 0.0 | 0.00 | 0.00 | 0.00 | 74 | 1023.8 |
| 20260905045331 | 15 | 100 | 0.0 | 0.0 | 0.00 | 0.00 | 0.00 | 76 | 1023.8 |
| 20260905044832 | 15 | 100 | 0.0 | 0.0 | 0.00 | 0.00 | 0.00 | 77 | 1023.9 |
| 20260905044403 | 15 | 100 | 0.0 | 0.0 | 0.00 | 0.00 | 0.00 | 78 | 1023.9 |
| 20260905043824 | 14 | 100 | 0.0 | 0.0 | 0.00 | 0.00 | 0.00 | 77 | 1023.8 |
| 20260905043317 | 14 | 100 | 0.0 | 0.0 | 0.00 | 0.00 | 0.00 | 77 | 1023.9 |
| 20260905042832 | 14 | 100 | 0.0 | 0.0 | 0.00 | 0.00 | 0.00 | 77 | 1023.8 |
| 20260905042317 | 14 | 100 | 0.0 | 0.0 | 0.00 | 0.00 | 0.00 | 77 | 1023.7 |
| 20260905041832 | 14 | 100 | 0.0 | 3.2 | 0.00 | 0.00 | 0.00 | 76 | 1023.6 |
| 20260905041317 | 15 | 100 | 0.0 | 3.2 | 0.00 | 0.00 | 0.00 | 76 | 1023.6 |
| 20260905040831 | 15 | 100 | 0.0 | 0.0 | 0.00 | 0.00 | 0.00 | 76 | 1023.5 |
| 20260905040324 | 15 | 100 | 0.0 | 0.0 | 0.00 | 0.00 | 0.00 | 75 | 1023.6 |